| time (UTC) | temp F | wind direction | speed MPH | gust MPH | rain 1hr in | rain 24hr in | rain mn in | humidity % | barometer mb |
| 20260510040045 | 61 | 108 | 1.0 | 4.0 | 0.00 | 0.02 | 0.02 | 66 | 1010.4 |
| 20260510034539 | 62 | 69 | 1.0 | 5.0 | 0.00 | 0.02 | 0.02 | 65 | 1010.3 |
| 20260510033045 | 62 | 88 | 1.0 | 5.0 | 0.00 | 0.02 | 0.02 | 65 | 1010.3 |
| 20260510031532 | 62 | 67 | 3.0 | 6.0 | 0.00 | 0.02 | 0.02 | 65 | 1010.0 |
| 20260510030026 | 62 | 105 | 2.0 | 6.0 | 0.00 | 0.02 | 0.02 | 65 | 1009.8 |
| 20260510024523 | 63 | 130 | 2.0 | 4.0 | 0.00 | 0.02 | 0.02 | 67 | 1009.8 |
| 20260510023019 | 64 | 55 | 1.0 | 3.0 | 0.00 | 0.02 | 0.02 | 67 | 1009.4 |
| 20260510021532 | 64 | 288 | 1.0 | 3.0 | 0.00 | 0.02 | 0.02 | 67 | 1009.1 |
| 20260510020009 | 64 | 293 | 1.0 | 3.0 | 0.00 | 0.02 | 0.02 | 67 | 1008.4 |
| 20260510014507 | 64 | 314 | 0.0 | 3.0 | 0.00 | 0.02 | 0.02 | 66 | 1007.9 |
| 20260510013002 | 64 | 45 | 0.0 | 3.0 | 0.00 | 0.02 | 0.02 | 68 | 1007.4 |
| 20260510011501 | 64 | 36 | 1.0 | 7.0 | 0.00 | 0.02 | 0.02 | 69 | 1007.2 |
| 20260510004601 | 64 | 291 | 0.0 | 8.0 | 0.00 | 0.02 | 0.02 | 71 | 1006.7 |
| 20260510003103 | 65 | 42 | 4.0 | 9.0 | 0.01 | 0.02 | 0.02 | 72 | 1006.4 |
| 20260510001553 | 65 | 55 | 2.0 | 9.0 | 0.01 | 0.02 | 0.02 | 70 | 1006.7 |
| 20260510000049 | 67 | 315 | 3.0 | 11.0 | 0.01 | 0.02 | 0.02 | 68 | 1006.7 |
| 20260509234543 | 71 | 86 | 3.0 | 12.0 | 0.01 | 0.02 | 0.02 | 61 | 1006.6 |
| 20260509233038 | 78 | 295 | 5.0 | 16.0 | 0.00 | 0.01 | 0.01 | 44 | 1005.7 |
| 20260509231534 | 80 | 311 | 0.0 | 6.0 | 0.00 | 0.01 | 0.01 | 38 | 1004.5 |
| 20260509230037 | 81 | 264 | 2.0 | 7.0 | 0.00 | 0.01 | 0.01 | 36 | 1004.6 |
| 20260509224525 | 82 | 288 | 3.0 | 8.0 | 0.00 | 0.07 | 0.01 | 35 | 1004.6 |
| 20260509223021 | 83 | 266 | 4.0 | 12.0 | 0.00 | 0.07 | 0.01 | 35 | 1004.7 |
| 20260509221517 | 83 | 238 | 7.0 | 13.0 | 0.00 | 0.07 | 0.01 | 32 | 1004.7 |
| 20260509220012 | 84 | 240 | 3.0 | 9.0 | 0.00 | 0.07 | 0.01 | 34 | 1004.8 |
| 20260509214510 | 83 | 247 | 3.0 | 10.0 | 0.00 | 0.07 | 0.01 | 34 | 1004.8 |
| 20260509213010 | 83 | 244 | 4.0 | 10.0 | 0.00 | 0.07 | 0.01 | 35 | 1004.8 |
| 20260509211503 | 82 | 282 | 3.0 | 10.0 | 0.00 | 0.07 | 0.01 | 37 | 1004.9 |
| 20260509210104 | 83 | 239 | 3.0 | 9.0 | 0.00 | 0.07 | 0.01 | 35 | 1005.1 |
| 20260509204556 | 84 | 277 | 3.0 | 7.0 | 0.00 | 0.07 | 0.01 | 37 | 1005.3 |
| 20260509203053 | 83 | 251 | 6.0 | 12.0 | 0.00 | 0.07 | 0.01 | 35 | 1005.4 |
| 20260509201553 | 83 | 277 | 4.0 | 10.0 | 0.00 | 0.07 | 0.01 | 36 | 1005.6 |
| 20260509200052 | 82 | 226 | 3.0 | 9.0 | 0.00 | 0.07 | 0.01 | 37 | 1005.8 |
| 20260509194555 | 82 | 250 | 3.0 | 9.0 | 0.00 | 0.07 | 0.01 | 39 | 1005.9 |
| 20260509193045 | 81 | 296 | 2.0 | 10.0 | 0.00 | 0.07 | 0.01 | 40 | 1006.2 |
| 20260509191542 | 80 | 302 | 5.0 | 11.0 | 0.00 | 0.07 | 0.01 | 39 | 1006.3 |
| 20260509190040 | 80 | 275 | 3.0 | 7.0 | 0.00 | 0.07 | 0.01 | 42 | 1006.5 |
| 20260509184536 | 79 | 326 | 2.0 | 9.0 | 0.00 | 0.07 | 0.01 | 42 | 1006.6 |
| 20260509183036 | 78 | 244 | 1.0 | 10.0 | 0.00 | 0.07 | 0.01 | 47 | 1006.6 |
| 20260509181531 | 77 | 241 | 2.0 | 8.0 | 0.00 | 0.07 | 0.01 | 48 | 1006.7 |
| 20260509180027 | 76 | 265 | 3.0 | 6.0 | 0.00 | 0.07 | 0.01 | 54 | 1006.8 |
| 20260509174524 | 75 | 241 | 4.0 | 10.0 | 0.00 | 0.07 | 0.01 | 53 | 1006.9 |
| 20260509173029 | 75 | 257 | 4.0 | 10.0 | 0.00 | 0.07 | 0.01 | 57 | 1007.2 |
| 20260509171517 | 74 | 240 | 4.0 | 8.0 | 0.00 | 0.07 | 0.01 | 61 | 1007.5 |
| 20260509170016 | 72 | 274 | 5.0 | 9.0 | 0.00 | 0.07 | 0.01 | 64 | 1007.5 |
| 20260509164512 | 71 | 288 | 4.0 | 9.0 | 0.00 | 0.07 | 0.01 | 68 | 1007.5 |
| 20260509163010 | 70 | 194 | 2.0 | 6.0 | 0.00 | 0.07 | 0.01 | 74 | 1007.4 |
| 20260509161505 | 69 | 297 | 4.0 | 8.0 | 0.00 | 0.07 | 0.01 | 74 | 1007.4 |
| 20260509160103 | 68 | 283 | 3.0 | 8.0 | 0.00 | 0.07 | 0.01 | 77 | 1007.3 |
| 20260509154556 | 67 | 248 | 3.0 | 8.0 | 0.00 | 0.07 | 0.01 | 79 | 1007.3 |
| 20260509153100 | 65 | 233 | 4.0 | 8.0 | 0.00 | 0.07 | 0.01 | 81 | 1007.2 |
| 20260509151549 | 64 | 257 | 6.0 | 12.0 | 0.00 | 0.07 | 0.01 | 84 | 1007.2 |
| 20260509150044 | 62 | 265 | 4.0 | 9.0 | 0.00 | 0.07 | 0.01 | 88 | 1007.1 |
| 20260509144545 | 61 | 238 | 5.0 | 11.0 | 0.00 | 0.07 | 0.01 | 91 | 1007.0 |
| 20260509143037 | 60 | 295 | 4.0 | 9.0 | 0.00 | 0.07 | 0.01 | 92 | 1006.9 |
| 20260509141540 | 59 | 283 | 4.0 | 11.0 | 0.00 | 0.07 | 0.01 | 93 | 1006.8 |
| 20260509140038 | 58 | 267 | 5.0 | 10.0 | 0.00 | 0.07 | 0.01 | 94 | 1006.9 |
| 20260509134529 | 58 | 277 | 5.0 | 10.0 | 0.00 | 0.07 | 0.01 | 94 | 1006.8 |
| 20260509133026 | 57 | 252 | 3.0 | 9.0 | 0.00 | 0.07 | 0.01 | 94 | 1006.7 |
| 20260509131524 | 56 | 299 | 3.0 | 8.0 | 0.00 | 0.07 | 0.01 | 94 | 1006.7 |
| 20260509130020 | 55 | 285 | 2.0 | 5.0 | 0.00 | 0.07 | 0.01 | 94 | 1006.6 |
| 20260509124518 | 54 | 321 | 2.0 | 5.0 | 0.00 | 0.07 | 0.01 | 94 | 1006.4 |
| 20260509123016 | 52 | 334 | 0.0 | 1.0 | 0.00 | 0.07 | 0.01 | 93 | 1006.4 |
| 20260509121515 | 52 | 267 | 0.0 | 4.0 | 0.00 | 0.07 | 0.01 | 93 | 1006.2 |
| 20260509120015 | 51 | 268 | 0.0 | 2.0 | 0.00 | 0.07 | 0.01 | 93 | 1006.2 |
| 20260509114513 | 50 | 268 | 0.0 | 0.0 | 0.00 | 0.07 | 0.01 | 92 | 1006.1 |
| 20260509113012 | 50 | 268 | 0.0 | 2.0 | 0.00 | 0.07 | 0.01 | 92 | 1006.0 |
| 20260509111513 | 50 | 268 | 0.0 | 2.0 | 0.00 | 0.07 | 0.01 | 92 | 1005.8 |
| 20260509110011 | 50 | 268 | 0.0 | 1.0 | 0.00 | 0.07 | 0.01 | 92 | 1005.8 |
| 20260509104510 | 50 | 268 | 0.0 | 1.0 | 0.00 | 0.07 | 0.01 | 92 | 1005.7 |
| 20260509103010 | 51 | 268 | 0.0 | 2.0 | 0.00 | 0.07 | 0.01 | 92 | 1005.8 |
| 20260509101508 | 51 | 268 | 0.0 | 1.0 | 0.00 | 0.07 | 0.01 | 92 | 1005.8 |
| 20260509100007 | 51 | 268 | 0.0 | 1.0 | 0.01 | 0.07 | 0.01 | 92 | 1005.8 |
| 20260509094506 | 51 | 268 | 0.0 | 3.0 | 0.01 | 0.07 | 0.01 | 92 | 1005.9 |
| 20260509093007 | 51 | 268 | 1.0 | 4.0 | 0.01 | 0.07 | 0.01 | 92 | 1005.9 |
| 20260509091509 | 51 | 273 | 0.0 | 4.0 | 0.01 | 0.07 | 0.01 | 92 | 1005.8 |
| 20260509090005 | 51 | 307 | 0.0 | 3.0 | 0.00 | 0.06 | 0.00 | 92 | 1005.7 |
| 20260509084505 | 51 | 307 | 0.0 | 1.0 | 0.00 | 0.06 | 0.00 | 92 | 1005.7 |
| 20260509083004 | 51 | 307 | 0.0 | 2.0 | 0.00 | 0.06 | 0.00 | 92 | 1005.6 |
| 20260509081504 | 52 | 307 | 0.0 | 1.0 | 0.00 | 0.06 | 0.00 | 91 | 1005.7 |
| 20260509080003 | 51 | 307 | 1.0 | 3.0 | 0.00 | 0.06 | 0.00 | 92 | 1005.7 |
| 20260509074502 | 51 | 307 | 0.0 | 2.0 | 0.00 | 0.06 | 0.00 | 91 | 1005.7 |
| 20260509073005 | 51 | 307 | 0.0 | 1.0 | 0.00 | 0.06 | 0.00 | 90 | 1005.9 |
| 20260509071500 | 51 | 307 | 0.0 | 2.0 | 0.00 | 0.06 | 0.00 | 90 | 1005.8 |
| 20260509070100 | 51 | 307 | 0.0 | 1.0 | 0.00 | 0.06 | 0.00 | 90 | 1005.8 |
| 20260509064600 | 51 | 307 | 0.0 | 0.0 | 0.00 | 0.06 | 0.00 | 90 | 1005.8 |
| 20260509063102 | 52 | 307 | 0.0 | 1.0 | 0.00 | 0.06 | 0.00 | 90 | 1006.1 |
| 20260509061553 | 52 | 307 | 0.0 | 0.0 | 0.00 | 0.06 | 0.00 | 90 | 1006.1 |
| 20260509060108 | 53 | 307 | 1.0 | 2.0 | 0.00 | 0.06 | 0.00 | 90 | 1006.3 |
| 20260509054552 | 53 | 307 | 0.0 | 3.0 | 0.00 | 0.06 | 0.00 | 90 | 1006.3 |
| 20260509053059 | 53 | 307 | 0.0 | 3.0 | 0.00 | 0.06 | 0.00 | 90 | 1006.4 |
| 20260509051548 | 53 | 307 | 0.0 | 0.0 | 0.00 | 0.06 | 0.00 | 89 | 1006.5 |
| 20260509050044 | 53 | 307 | 0.0 | 2.0 | 0.00 | 0.06 | 0.00 | 89 | 1006.7 |
| 20260509044543 | 53 | 307 | 1.0 | 3.0 | 0.00 | 0.06 | 0.06 | 89 | 1006.7 |
| 20260509043051 | 53 | 307 | 0.0 | 0.0 | 0.00 | 0.06 | 0.06 | 88 | 1006.8 |
| 20260509041542 | 54 | 307 | 0.0 | 0.0 | 0.00 | 0.06 | 0.06 | 87 | 1006.8 |